TimeMDT,TemperatureF,Dew PointF,Humidity,Sea Level PressureIn,VisibilityMPH,Wind Direction,Wind SpeedMPH,Gust SpeedMPH,PrecipitationIn,Events,Conditions,WindDirDegrees,DateUTC
12:53 AM,46.9,30.0,52,29.86,10.0,NE,6.9,-,N/A,,Overcast,50,2012-09-11 06:53:00
1:53 AM,50.0,28.9,44,29.82,10.0,NE,3.5,-,N/A,,Overcast,40,2012-09-11 07:53:00
2:53 AM,48.9,28.9,46,29.82,10.0,NE,4.6,-,N/A,,Overcast,50,2012-09-11 08:53:00
3:53 AM,48.0,30.9,52,29.83,10.0,SW,3.5,-,N/A,,Overcast,230,2012-09-11 09:53:00
4:53 AM,46.9,30.9,54,29.83,10.0,Calm,Calm,-,N/A,,Overcast,0,2012-09-11 10:53:00
5:53 AM,48.0,30.9,52,29.82,10.0,Calm,Calm,-,N/A,,Overcast,0,2012-09-11 11:53:00
6:53 AM,46.0,30.9,56,29.86,10.0,Calm,Calm,-,N/A,,Mostly Cloudy,0,2012-09-11 12:53:00
7:53 AM,50.0,34.0,54,29.87,10.0,Calm,Calm,-,N/A,,Scattered Clouds,0,2012-09-11 13:53:00
8:53 AM,54.0,35.1,49,29.88,10.0,NNW,6.9,-,N/A,,Overcast,330,2012-09-11 14:53:00
9:53 AM,57.0,36.0,45,29.88,10.0,North,4.6,-,N/A,,Overcast,360,2012-09-11 15:53:00
10:53 AM,59.0,35.1,41,29.88,10.0,Variable,4.6,-,N/A,,Overcast,0,2012-09-11 16:53:00
11:53 AM,59.0,34.0,39,29.85,10.0,Calm,Calm,-,N/A,,Overcast,0,2012-09-11 17:53:00
12:53 PM,60.1,35.1,39,29.83,10.0,SW,12.7,25.3,N/A,,Overcast,220,2012-09-11 18:53:00
1:53 PM,62.1,33.1,34,29.79,7.0,South,15.0,24.2,0.00,,Mostly Cloudy,180,2012-09-11 19:53:00
2:53 PM,61.0,34.0,36,29.78,10.0,SSW,8.1,-,N/A,,Overcast,210,2012-09-11 20:53:00
3:53 PM,59.0,36.0,42,29.79,10.0,NNW,6.9,16.1,N/A,,Overcast,340,2012-09-11 21:53:00
4:53 PM,52.0,42.1,69,29.88,10.0,NNE,8.1,-,0.00,Rain,Light Rain,30,2012-09-11 22:53:00
5:53 PM,51.1,42.1,71,29.88,10.0,Calm,Calm,-,0.00,Rain,Light Rain,0,2012-09-11 23:53:00
6:53 PM,51.1,43.0,74,29.89,10.0,NNW,3.5,-,0.00,,Mostly Cloudy,330,2012-09-12 00:53:00
7:53 PM,48.9,43.0,80,29.89,10.0,NNW,8.1,-,0.00,Rain,Light Rain,330,2012-09-12 01:53:00
8:53 PM,46.0,45.0,96,29.91,5.0,NE,4.6,-,0.05,Rain,Rain,40,2012-09-12 02:53:00
9:53 PM,45.0,44.1,97,29.92,5.0,SE,4.6,-,0.15,Rain,Rain,130,2012-09-12 03:53:00
10:53 PM,45.0,43.0,93,29.90,10.0,Calm,Calm,-,0.09,Rain,Light Rain,0,2012-09-12 04:53:00
11:22 PM,44.6,44.6,100,30.36,10.0,Calm,Calm,-,0.01,Rain,Light Rain,0,2012-09-12 05:22:00
11:31 PM,44.6,42.8,93,30.36,10.0,NNW,3.5,-,0.01,Rain,Light Rain,330,2012-09-12 05:31:00
11:53 PM,44.1,43.0,96,29.89,10.0,NNW,3.5,-,0.01,,Overcast,340,2012-09-12 05:53:00